This demonstration page uses our WeatherBlox Daily Observations layout. Learn more.

Left ArrowRight Arrow

41.86663, -103.66717

Hourly Observations for November 22, 2016

Temp ( °F °C ) Dew Point ( °F °C ) Humidity (%) Winds ( mph kmh ) Pressure ( in mb ) Visibility ( mi km ) Precip ( " mm )
12:53 am 00:53 Mostly Cloudy 36 2.2 30 -1.1 79 79 WNW 6 9 29.71 1006 10 16 N/A
1:53 am 01:53 Cloudy 36 2.2 31 -0.6 82 82 WNW 3 6 29.74 1007 10 16 N/A
2:53 am 02:53 Cloudy 41 5 32 undefined 70 70 NNW 9 15 29.74 1007 10 16 N/A
3:53 am 03:53 Cloudy 41 5 31 -0.6 67 67 NNW 9 15 29.78 1008 10 16 N/A
4:53 am 04:53 Cloudy 41 5 31 -0.6 67 67 WNW 10 17 29.81 1010 10 16 N/A
5:53 am 05:53 Cloudy 41 5 31 -0.6 67 67 WNW 14 22 29.85 1011 10 16 N/A
6:53 am 06:53 Cloudy 41 5 31 -0.6 67 67 WNW 15 24 29.89 1012 10 16 N/A
7:53 am 07:53 Cloudy 40 4.4 32 undefined 73 73 WNW 17 28 29.93 1013 10 16 N/A
8:53 am 08:53 Cloudy 42 5.6 32 undefined 68 68 NW 23 37 29.96 1015 10 16 N/A
9:53 am 09:53 Cloudy 41 5 33 0.6 73 73 NW 18 30 30.00 1016 10 16 N/A
10:07 am 10:07 Cloudy with Light Rain 38 3.3 32 undefined 79 79 NW 20 31 30.06 1018 9 14 N/A
10:53 am 10:53 Cloudy with Light Rain 37 2.8 37 2.8 100 100 WNW 14 22 30.04 1017 5 8 0.07 1.78
11:36 am 11:36 Cloudy with Light Rain 39 4 N/A N/A NW 16 26 30.03 1017 10 16 N/A
11:46 am 11:46 Cloudy with Light Rain 39 4 N/A N/A NNW 16 26 30.03 1017 10 16 N/A
11:53 am 11:53 Cloudy with Light Rain 39 4 N/A N/A NNW 17 28 30.04 1017 10 16 0.03 0.76
12:53 pm 12:53 Cloudy with Light Rain 40 4.4 37 2.8 89 89 NW 21 33 30.05 1018 10 16 0.01 0.25
1:53 pm 13:53 Cloudy with Light Rain 41 5 37 2.8 86 86 NW 14 22 30.06 1018 10 16 N/A
2:53 pm 14:53 Cloudy 45 7.2 38 3.3 77 77 NW 15 24 30.04 1017 10 16 0.01 0.25
3:53 pm 15:53 Mostly Sunny 44 6.7 35 1.7 71 71 NW 14 22 30.07 1018 10 16 N/A
4:53 pm 16:53 Mostly Clear 40 4.4 33 0.6 77 77 WNW 8 13 30.10 1019 10 16 N/A
5:53 pm 17:53 Mostly Clear 36 2.2 33 0.6 89 89 WNW 8 13 30.14 1021 10 16 N/A
6:53 pm 18:53 Clear 37 2.8 33 0.6 86 86 NW 9 15 30.16 1021 10 16 N/A
7:53 pm 19:53 Clear 35 1.7 32 undefined 89 89 N 8 13 30.18 1022 10 16 N/A
8:53 pm 20:53 Clear 32 undefined 31 -0.6 96 96 NW 8 13 30.19 1023 10 16 N/A
9:53 pm 21:53 Clear 30 -1.1 28 -2.2 92 92 W 7 11 30.21 1023 10 16 N/A
10:53 pm 22:53 Clear 29 -1.7 27 -2.8 92 92 WNW 6 9 30.23 1024 10 16 N/A
11:53 pm 23:53 Clear 30 -1.1 28 -2.2 92 92 WNW 6 9 30.21 1023 10 16 N/A

Powered by AerisWeather